Volver al catálogo

PROBA 2

ActivoCienciaSSO
NORAD 36037·PAYLOAD·🇪🇺 EU

Lanzado Nov 2, 2009 desde Plesetsk Cosmodrome

Loading…

Próximos Pases (próximas 24 horas)

TLE

ActualizadoSource: Space-Track

Época: Sep 14, 2026, 10:35 UTC

1 36037U 09059B   26257.44140612  .00000104  00000-0  34663-4 0  9997
2 36037  98.2482  79.5813 0013466  10.6337 349.5142 14.54893682894501

Sigue PROBA 2 en tiempo real con AllMySat

Download on the App Store